Time,TemperatureF,DewpointF,PressureIn,WindDirection,WindDirectionDegrees,WindSpeedMPH,WindSpeedGustMPH,Humidity,HourlyPrecipIn,Conditions,Clouds,dailyrainin,SoftwareType,DateUTC
2013-06-03 00:14:00,68.4,66.0,29.77,SW,218,0.0,-999.0,93,-99.99,,,0.07,weatherlink.com 1.10,2013-06-03 04:14:00,
2013-06-03 00:29:00,68.1,66.0,29.77,SW,218,0.0,-999.0,94,-99.99,,,0.07,weatherlink.com 1.10,2013-06-03 04:29:00,
2013-06-03 00:44:00,67.5,66.0,29.77,SW,218,0.0,-999.0,95,-99.99,,,0.07,weatherlink.com 1.10,2013-06-03 04:44:00,
2013-06-03 00:59:00,67.0,66.0,29.78,SW,218,0.0,-999.0,96,-99.99,,,0.07,weatherlink.com 1.10,2013-06-03 04:59:00,
2013-06-03 01:14:00,66.9,66.0,29.77,SW,218,0.0,-999.0,97,-99.99,,,0.07,weatherlink.com 1.10,2013-06-03 05:14:00,
2013-06-03 01:29:00,67.0,66.0,29.77,SW,218,0.0,-999.0,96,-99.99,,,0.07,weatherlink.com 1.10,2013-06-03 05:29:00,
2013-06-03 01:44:00,67.0,66.0,29.76,SW,218,0.0,-999.0,96,-99.99,,,0.07,weatherlink.com 1.10,2013-06-03 05:44:00,
2013-06-03 01:59:00,66.7,66.0,29.77,SW,218,0.0,-999.0,96,-99.99,,,0.07,weatherlink.com 1.10,2013-06-03 05:59:00,
2013-06-03 02:14:00,66.6,66.0,29.77,SW,218,0.0,-999.0,96,-99.99,,,0.07,weatherlink.com 1.10,2013-06-03 06:14:00,
2013-06-03 02:29:00,66.3,65.0,29.76,SW,218,0.0,-999.0,96,-99.99,,,0.07,weatherlink.com 1.10,2013-06-03 06:29:00,
2013-06-03 02:44:00,66.2,65.0,29.76,SW,218,0.0,-999.0,97,-99.99,,,0.07,weatherlink.com 1.10,2013-06-03 06:44:00,
2013-06-03 02:59:00,66.0,65.0,29.76,SW,218,0.0,-999.0,97,-99.99,,,0.07,weatherlink.com 1.10,2013-06-03 06:59:00,
2013-06-03 03:14:00,66.0,65.0,29.75,SW,218,0.0,-999.0,97,-99.99,,,0.07,weatherlink.com 1.10,2013-06-03 07:14:00,
2013-06-03 03:29:00,66.0,65.0,29.75,SW,218,0.0,-999.0,97,-99.99,,,0.07,weatherlink.com 1.10,2013-06-03 07:29:00,
2013-06-03 03:44:00,65.9,65.0,29.74,SW,218,0.0,-999.0,97,-99.99,,,0.07,weatherlink.com 1.10,2013-06-03 07:44:00,
2013-06-03 03:59:00,65.8,65.0,29.75,SW,218,0.0,-999.0,97,-99.99,,,0.07,weatherlink.com 1.10,2013-06-03 07:59:00,
2013-06-03 04:14:00,65.9,65.0,29.75,SW,218,0.0,-999.0,97,-99.99,,,0.07,weatherlink.com 1.10,2013-06-03 08:14:00,
2013-06-03 04:29:00,66.1,65.0,29.75,SW,218,0.0,-999.0,97,-99.99,,,0.07,weatherlink.com 1.10,2013-06-03 08:29:00,
2013-06-03 04:44:00,66.3,66.0,29.75,SW,218,0.0,-999.0,97,-99.99,,,0.07,weatherlink.com 1.10,2013-06-03 08:44:00,
2013-06-03 04:59:00,66.4,66.0,29.75,SW,218,0.0,-999.0,97,-99.99,,,0.07,weatherlink.com 1.10,2013-06-03 08:59:00,
2013-06-03 05:14:00,66.6,66.0,29.76,SW,218,0.0,-999.0,97,-99.99,,,0.07,weatherlink.com 1.10,2013-06-03 09:14:00,
2013-06-03 05:29:00,66.7,66.0,29.76,SW,218,0.0,-999.0,97,-99.99,,,0.07,weatherlink.com 1.10,2013-06-03 09:29:00,
2013-06-03 05:44:00,66.8,66.0,29.77,SW,218,0.0,-999.0,97,-99.99,,,0.07,weatherlink.com 1.10,2013-06-03 09:44:00,
2013-06-03 05:59:00,66.8,66.0,29.78,SW,218,0.0,-999.0,97,-99.99,,,0.08,weatherlink.com 1.10,2013-06-03 09:59:00,
2013-06-03 06:14:00,66.8,66.0,29.80,SW,215,1.0,-999.0,97,-99.99,,,0.02,weatherlink.com 1.10,2013-06-03 10:14:00,
2013-06-03 06:29:00,66.7,66.0,29.81,SSW,207,0.0,-999.0,97,-99.99,,,0.07,weatherlink.com 1.10,2013-06-03 10:29:00,
2013-06-03 06:44:00,66.5,66.0,29.81,SSW,198,0.0,-999.0,98,-99.99,,,0.13,weatherlink.com 1.10,2013-06-03 10:44:00,
2013-06-03 06:59:00,66.2,65.0,29.81,SSW,205,0.0,-999.0,97,-99.99,,,0.17,weatherlink.com 1.10,2013-06-03 10:59:00,
2013-06-03 07:14:00,65.7,65.0,29.81,SSW,205,0.0,-999.0,97,-99.99,,,0.18,weatherlink.com 1.10,2013-06-03 11:14:00,
2013-06-03 07:29:00,65.5,65.0,29.81,SSW,205,0.0,-999.0,97,-99.99,,,0.20,weatherlink.com 1.10,2013-06-03 11:29:00,
2013-06-03 07:44:00,65.3,65.0,29.81,SSW,205,0.0,-999.0,97,-99.99,,,0.22,weatherlink.com 1.10,2013-06-03 11:44:00,
2013-06-03 07:59:00,65.1,64.0,29.81,SSW,205,0.0,-999.0,97,-99.99,,,0.24,weatherlink.com 1.10,2013-06-03 11:59:00,
2013-06-03 08:14:00,65.4,65.0,29.80,SSW,205,0.0,-999.0,98,-99.99,,,0.24,weatherlink.com 1.10,2013-06-03 12:14:00,
2013-06-03 08:29:00,65.4,65.0,29.80,SSW,205,0.0,-999.0,98,-99.99,,,0.25,weatherlink.com 1.10,2013-06-03 12:29:00,
2013-06-03 08:44:00,65.5,65.0,29.80,SSW,205,0.0,-999.0,98,-99.99,,,0.25,weatherlink.com 1.10,2013-06-03 12:44:00,
2013-06-03 08:59:00,65.2,64.0,29.81,SSW,205,0.0,-999.0,97,-99.99,,,0.25,weatherlink.com 1.10,2013-06-03 12:59:00,
2013-06-03 09:14:00,65.3,65.0,29.81,SSW,205,0.0,-999.0,98,-99.99,,,0.25,weatherlink.com 1.10,2013-06-03 13:14:00,
2013-06-03 09:29:00,65.2,64.0,29.81,SSW,205,0.0,-999.0,97,-99.99,,,0.27,weatherlink.com 1.10,2013-06-03 13:29:00,
2013-06-03 09:44:00,65.0,64.0,29.81,SSW,205,1.0,-999.0,97,-99.99,,,0.29,weatherlink.com 1.10,2013-06-03 13:44:00,
2013-06-03 09:59:00,64.7,64.0,29.81,SSW,203,0.0,-999.0,97,-99.99,,,0.30,weatherlink.com 1.10,2013-06-03 13:59:00,
2013-06-03 10:14:00,64.8,64.0,29.81,SSW,203,0.0,-999.0,98,-99.99,,,0.33,weatherlink.com 1.10,2013-06-03 14:14:00,
2013-06-03 10:29:00,64.9,64.0,29.81,SSW,203,0.0,-999.0,98,-99.99,,,0.35,weatherlink.com 1.10,2013-06-03 14:29:00,
2013-06-03 10:44:00,64.8,64.0,29.81,SSW,203,0.0,-999.0,98,-99.99,,,0.38,weatherlink.com 1.10,2013-06-03 14:44:00,
2013-06-03 10:59:00,64.9,64.0,29.80,SSW,203,0.0,-999.0,98,-99.99,,,0.38,weatherlink.com 1.10,2013-06-03 14:59:00,
2013-06-03 11:14:00,65.0,65.0,29.80,SSW,203,0.0,-999.0,98,-99.99,,,0.39,weatherlink.com 1.10,2013-06-03 15:14:00,
2013-06-03 11:29:00,65.5,65.0,29.80,SSW,203,0.0,-999.0,99,-99.99,,,0.39,weatherlink.com 1.10,2013-06-03 15:29:00,
2013-06-03 11:44:00,66.1,66.0,29.80,SSW,203,0.0,-999.0,99,-99.99,,,0.39,weatherlink.com 1.10,2013-06-03 15:44:00,
2013-06-03 11:59:00,66.4,66.0,29.79,SSW,203,0.0,-999.0,98,-99.99,,,0.39,weatherlink.com 1.10,2013-06-03 15:59:00,
2013-06-03 12:14:00,67.1,66.0,29.79,SSW,203,0.0,-999.0,97,-99.99,,,0.39,weatherlink.com 1.10,2013-06-03 16:14:00,
2013-06-03 12:29:00,68.1,67.0,29.79,SSW,203,0.0,-999.0,96,-99.99,,,0.39,weatherlink.com 1.10,2013-06-03 16:29:00,
2013-06-03 12:44:00,68.4,66.0,29.79,SSW,199,0.0,-999.0,93,-99.99,,,0.39,weatherlink.com 1.10,2013-06-03 16:44:00,
2013-06-03 12:59:00,68.8,66.0,29.78,SSW,202,0.0,-999.0,91,-99.99,,,0.39,weatherlink.com 1.10,2013-06-03 16:59:00,
2013-06-03 13:14:00,69.5,67.0,29.78,SSW,196,1.0,-999.0,90,-99.99,,,0.39,weatherlink.com 1.10,2013-06-03 17:14:00,
2013-06-03 13:29:00,71.1,67.0,29.77,SSW,194,0.0,-999.0,86,-99.99,,,0.39,weatherlink.com 1.10,2013-06-03 17:29:00,
2013-06-03 13:45:00,73.3,68.0,29.76,SSW,195,0.0,-999.0,83,-99.99,,,0.39,weatherlink.com 1.10,2013-06-03 17:45:00,
2013-06-03 14:00:00,75.5,69.0,29.76,SSW,195,0.0,-999.0,80,-99.99,,,0.39,weatherlink.com 1.10,2013-06-03 18:00:00,
2013-06-03 14:15:00,77.0,69.0,29.75,West,263,0.0,-999.0,75,-99.99,,,0.39,weatherlink.com 1.10,2013-06-03 18:15:00,
2013-06-03 14:30:00,78.2,68.0,29.75,SSW,211,0.0,-999.0,71,-99.99,,,0.39,weatherlink.com 1.10,2013-06-03 18:30:00,
2013-06-03 14:45:00,78.8,68.0,29.74,SSW,200,0.0,-999.0,70,-99.99,,,0.39,weatherlink.com 1.10,2013-06-03 18:45:00,
2013-06-03 15:00:00,79.1,68.0,29.74,South,185,0.0,-999.0,69,-99.99,,,0.39,weatherlink.com 1.10,2013-06-03 19:00:00,
2013-06-03 15:15:00,79.6,68.0,29.74,SW,215,1.0,-999.0,68,-99.99,,,0.39,weatherlink.com 1.10,2013-06-03 19:15:00,
2013-06-03 15:30:00,80.5,68.0,29.74,SSW,212,0.0,-999.0,65,-99.99,,,0.39,weatherlink.com 1.10,2013-06-03 19:30:00,
2013-06-03 15:45:00,80.7,67.0,29.74,SSW,195,0.0,-999.0,64,-99.99,,,0.39,weatherlink.com 1.10,2013-06-03 19:45:00,
2013-06-03 16:00:00,80.3,67.0,29.74,SW,215,0.0,-999.0,65,-99.99,,,0.39,weatherlink.com 1.10,2013-06-03 20:00:00,
2013-06-03 16:15:00,79.6,65.0,29.73,SSW,198,3.0,-999.0,62,-99.99,,,0.39,weatherlink.com 1.10,2013-06-03 20:15:00,
2013-06-03 16:30:00,78.0,65.0,29.73,SSW,196,2.0,-999.0,64,-99.99,,,0.39,weatherlink.com 1.10,2013-06-03 20:30:00,
2013-06-03 16:45:00,78.5,65.0,29.73,West,261,0.0,-999.0,64,-99.99,,,0.39,weatherlink.com 1.10,2013-06-03 20:45:00,
2013-06-03 17:00:00,79.2,65.0,29.73,SE,146,0.0,-999.0,63,-99.99,,,0.39,weatherlink.com 1.10,2013-06-03 21:00:00,
2013-06-03 17:15:00,78.8,65.0,29.73,West,259,4.0,-999.0,62,-99.99,,,0.39,weatherlink.com 1.10,2013-06-03 21:15:00,
2013-06-03 17:30:00,78.3,65.0,29.72,SSW,204,1.0,-999.0,63,-99.99,,,0.39,weatherlink.com 1.10,2013-06-03 21:30:00,
2013-06-03 17:45:00,77.7,64.0,29.72,West,261,0.0,-999.0,62,-99.99,,,0.39,weatherlink.com 1.10,2013-06-03 21:45:00,
2013-06-03 18:00:00,78.0,63.0,29.72,WSW,257,1.0,-999.0,60,-99.99,,,0.39,weatherlink.com 1.10,2013-06-03 22:00:00,
2013-06-03 18:15:00,77.2,62.0,29.72,WSW,243,0.0,-999.0,59,-99.99,,,0.39,weatherlink.com 1.10,2013-06-03 22:15:00,
2013-06-03 18:30:00,76.9,61.0,29.72,East,96,0.0,-999.0,59,-99.99,,,0.39,weatherlink.com 1.10,2013-06-03 22:30:00,
2013-06-03 18:45:00,76.5,61.0,29.73,West,265,0.0,-999.0,59,-99.99,,,0.39,weatherlink.com 1.10,2013-06-03 22:45:00,
2013-06-03 19:00:00,75.6,61.0,29.72,WSW,258,1.0,-999.0,60,-99.99,,,0.39,weatherlink.com 1.10,2013-06-03 23:00:00,
2013-06-03 19:15:00,74.6,60.0,29.73,NNE,14,0.0,-999.0,61,-99.99,,,0.39,weatherlink.com 1.10,2013-06-03 23:15:00,
2013-06-03 19:30:00,73.7,59.0,29.74,SE,146,0.0,-999.0,61,-99.99,,,0.39,weatherlink.com 1.10,2013-06-03 23:30:00,
2013-06-03 19:45:00,72.3,59.0,29.74,WSW,243,1.0,-999.0,64,-99.99,,,0.39,weatherlink.com 1.10,2013-06-03 23:45:00,
2013-06-03 20:00:00,71.3,56.0,29.75,ENE,71,0.0,-999.0,59,-99.99,,,0.39,weatherlink.com 1.10,2013-06-04 00:00:00,
2013-06-03 20:15:00,70.1,54.0,29.75,SW,236,0.0,-999.0,58,-99.99,,,0.39,weatherlink.com 1.10,2013-06-04 00:15:00,
2013-06-03 20:30:00,69.1,53.0,29.76,WSW,237,0.0,-999.0,56,-99.99,,,0.39,weatherlink.com 1.10,2013-06-04 00:30:00,
2013-06-03 20:45:00,68.0,52.0,29.77,SSW,208,0.0,-999.0,56,-99.99,,,0.39,weatherlink.com 1.10,2013-06-04 00:45:00,
2013-06-03 21:00:00,67.0,51.0,29.77,West,266,1.0,-999.0,56,-99.99,,,0.39,weatherlink.com 1.10,2013-06-04 01:00:00,
2013-06-03 21:15:00,65.9,52.0,29.78,NW,317,0.0,-999.0,62,-99.99,,,0.39,weatherlink.com 1.10,2013-06-04 01:15:00,
2013-06-03 21:30:00,65.0,50.0,29.78,West,269,0.0,-999.0,59,-99.99,,,0.39,weatherlink.com 1.10,2013-06-04 01:30:00,
2013-06-03 21:45:00,64.3,50.0,29.79,West,269,0.0,-999.0,60,-99.99,,,0.39,weatherlink.com 1.10,2013-06-04 01:45:00,
2013-06-03 22:00:00,63.6,50.0,29.79,West,267,0.0,-999.0,61,-99.99,,,0.39,weatherlink.com 1.10,2013-06-04 02:00:00,
2013-06-03 22:15:00,62.7,50.0,29.80,WNW,288,0.0,-999.0,63,-99.99,,,0.39,weatherlink.com 1.10,2013-06-04 02:15:00,
2013-06-03 22:30:00,61.5,48.0,29.79,WNW,288,0.0,-999.0,62,-99.99,,,0.39,weatherlink.com 1.10,2013-06-04 02:30:00,
2013-06-03 22:46:00,60.8,47.0,29.80,WNW,288,0.0,-999.0,60,-99.99,,,0.39,weatherlink.com 1.10,2013-06-04 02:46:00,
2013-06-03 23:01:00,60.5,47.0,29.80,WNW,288,0.0,-999.0,62,-99.99,,,0.39,weatherlink.com 1.10,2013-06-04 03:01:00,
2013-06-03 23:16:00,60.0,46.0,29.80,NNE,12,0.0,-999.0,61,-99.99,,,0.39,weatherlink.com 1.10,2013-06-04 03:16:00,
2013-06-03 23:31:00,59.3,47.0,29.80,NNE,12,0.0,-999.0,63,-99.99,,,0.39,weatherlink.com 1.10,2013-06-04 03:31:00,
2013-06-03 23:46:00,58.7,46.0,29.80,WSW,239,1.0,-999.0,63,-99.99,,,0.39,weatherlink.com 1.10,2013-06-04 03:46:00,